Hourly Data Report for October 08, 2013

All times are specified in Local Standard Time (LST). Add 1 hour to adjust for Daylight Saving Time where and when it is observed.

CLYDE RIVER A
NUNAVUT

70°29'09.000" N
68°31'01.000" W
26.50 m
2400804
71090
YCY

Download Data

Hourly Data (October 2013)
Hourly Data Report for October 8, 2013
Temp Definition
°C
Dew Point Temp Definition
°C
Rel Hum Definition
%
Wind Dir Definition
10's deg

Wind Spd Definition
km/h
Visibility Definition
km
Stn Press Definition
kPa
Hmdx Definition


Wind Chill Definition


Weather Definition


TIME
00:00 Legend Double Dagger -6.5 -7.6 92 30 13 4.8 101.57   -12 LegendNANA
01:00 Legend Double Dagger -6.0 -7.0 93 32 15 2.8 101.53   -12 LegendNANA
02:00 Legend Double Dagger -6.0 -7.0 93 32 13 4.8 101.49   -11 LegendNANA
03:00 Legend Double Dagger -5.4 -6.2 94 36 11 2.8 101.44   -10 LegendNANA
04:00 Legend Double Dagger -4.2 -5.5 91 10 17 4.0 101.41   -10 LegendNANA
05:00 Legend Double Dagger -4.1 -5.5 90 7 15 4.8 101.37   -9 LegendNANA
06:00 Legend Double Dagger -3.7 -6.5 81 7 21 16.1 101.32   -10 LegendNANA
07:00 Legend Double Dagger -3.0 -6.5 77 10 24 16.1 101.31   -10 LegendNANA
08:00 Legend Double Dagger -2.9 -7.2 72 8 30 16.1 101.25   -10 LegendNANA
09:00 Legend Double Dagger -2.8 -7.6 70 7 33 16.1 101.18   -10 LegendNANA
10:00 Legend Double Dagger -3.3 -7.7 72 7 22 16.1 101.15   -10 LegendNANA
11:00 Legend Double Dagger -3.3 -7.7 72 6 24 16.1 101.08   -10 LegendNANA
12:00 Legend Double Dagger -3.2 -7.4 73 6 24 16.1 101.02   -10 LegendNANA
13:00 Legend Double Dagger -3.6 -6.2 82 3 30 16.1 100.95   -11 LegendNANA
14:00 Legend Double Dagger -4.2 -5.6 90 1 22 2.4 100.90   -11 LegendNANA
15:00 Legend Double Dagger -3.5 -6.4 81 3 24 16.1 100.82   -10 LegendNANA
16:00 Legend Double Dagger -4.5 -7.3 81 2 21 16.1 100.76   -11 LegendNANA
17:00 Legend Double Dagger -3.8 -7.6 75 3 24 16.1 100.67   -11 LegendNANA
18:00 Legend Double Dagger -3.3 -6.8 77 1 28 16.1 100.59   -11 LegendNANA
19:00 Legend Double Dagger -2.9 -5.4 83 3 30 16.1 100.52   -10 LegendNANA
20:00 Legend Double Dagger -2.7 -3.9 92 2 28 6.4 100.45   -10 LegendNANA
21:00 Legend Double Dagger -3.4 -6.1 82 4 30 16.1 100.41   -11 LegendNANA
22:00 Legend Double Dagger -3.5 -6.5 80 2 30 16.1 100.34   -11 LegendNANA
23:00 Legend Double Dagger -3.4 -6.4 80 2 37 16.1 100.27   -12 LegendNANA

Notes on Data Quality.

Legend

  • E = Estimated
  • M = Missing
  • NA = Not Available
  • ‡ = Partner data that is not subject to review by the National Climate Archives
Date modified: